Weather History for LICZ - April, 2013

Change the Weather History Date:

Sunday, April 7, 2013

  Actual Average Record
Temperature  
Mean Temperature 60 °F -  
Max Temperature 68 °F 71 °F 80 °F (1998)
Min Temperature 52 °F 48 °F 38 °F (2015)
Degree Days  
Heating Degree Days 5    
Growing Degree Days 10 (Base 50)    
Moisture  
Dew Point 51 °F    
Average Humidity 74    
Maximum Humidity 100    
Minimum Humidity 36    
Precipitation  
Precipitation 0.02 in 0.04 in - ()
Sea Level Pressure  
Sea Level Pressure 29.63 in    
Wind  
Wind Speed 9 mph ()    
Max Wind Speed 23 mph    
Max Gust Speed 28 mph    
Visibility 6.4 miles    
Events Rain    
Averages and records for this station are not official NWS values.
T = Trace of Precipitation, MM = Missing Value Source: Averaged Metar Reports

Daily Weather History Graph

Daily Weather History Graph

Search for Another Location

Airport or City:

Trip Planner

Search our weather history database for the weather conditions in past years. The results will help you decide how hot, cold, wet, or windy it might be!

Date:

Astronomy

Apr. 07, 2013 Rise Set
Actual Time 6:37 AM CEST 7:28 PM CEST
Civil Twilight 6:10 AM CEST 7:54 PM CEST
Nautical Twilight 5:39 AM CEST 8:26 PM CEST
Astronomical Twilight 5:06 AM CEST 8:58 PM CEST
Moon 4:41 AM CEST (4/7) 4:45 PM CEST (4/7)
Length of Visible Light 13h 44m
Length of Day
12h 51m
Waning Crescent, 10% of the Moon is Illuminated
Apr 7
Waning Crescent
Apr 10
New
Apr 18
First Quarter
Apr 25
Full
May 2
Last Quarter

Hourly Weather History & Observations

Time (CEST) Temp. Dew Point Humidity Pressure Visibility Wind Dir Wind Speed Gust Speed Precip Events Conditions
12:55 AM 55.4 °F 55.4 °F 100% 29.71 in 6.2 mi North 8.1 mph - N/A   Partly Cloudy
2:00 AM 55 °F 55 °F 100% 29.71 in 6 mi West 6.9 mph - -   Scattered Clouds
2:55 AM 53.6 °F 53.6 °F 100% 29.62 in 6.2 mi West 8.1 mph - N/A   Partly Cloudy
3:55 AM 53.6 °F 53.6 °F 100% 29.59 in 6.2 mi West 5.8 mph - N/A   Scattered Clouds
4:55 AM 53.6 °F 53.6 °F 100% 29.56 in 6.2 mi West 4.6 mph - N/A   Partly Cloudy
5:00 AM 54 °F 54 °F 100% 29.57 in 6 mi West 4.6 mph - -   Partly Cloudy
5:55 AM 53.6 °F 53.6 °F 100% 29.59 in 6.2 mi North 1.2 mph - N/A   Scattered Clouds
6:55 AM 51.8 °F 51.8 °F 100% 29.59 in 6.2 mi East 1.2 mph - N/A   Mostly Cloudy
7:55 AM 53.6 °F 53.6 °F 100% 29.59 in 6.2 mi NNW 2.3 mph - N/A   Mostly Cloudy
8:00 AM 53 °F 53 °F 100% 29.61 in 6 mi NNW 2.3 mph - -   Partly Cloudy
8:55 AM 55.4 °F 55.4 °F 100% 29.56 in 6.2 mi WNW 4.6 mph - N/A Rain Light Rain
9:55 AM 60.8 °F 59.0 °F 94% 29.56 in 6.2 mi West 11.5 mph - N/A   Scattered Clouds
10:55 AM 64.4 °F 53.6 °F 68% 29.59 in 6.2 mi West 13.8 mph - N/A   Scattered Clouds
11:00 AM 64 °F 54 °F 61% 29.60 in 9 mi West 13.8 mph - -   Partly Cloudy
11:55 AM 66.2 °F 53.6 °F 64% 29.59 in 6.2 mi West 13.8 mph - N/A   Mostly Cloudy
12:55 PM 62.6 °F 59.0 °F 88% 29.59 in 6.2 mi WSW 6.9 mph - N/A Rain Light Rain
1:55 PM 64.4 °F 50.0 °F 59% 29.59 in 6.2 mi NNW 13.8 mph - N/A   Mostly Cloudy
2:00 PM 65 °F 50 °F 47% 29.60 in 6 mi NNW 13.8 mph - - Rain Light Rain
2:55 PM 66.2 °F 53.6 °F 64% 29.59 in 6.2 mi North 9.2 mph - N/A   Mostly Cloudy
3:55 PM 64.4 °F 46.4 °F 52% 29.56 in 6.2 mi NW 20.7 mph - N/A   Mostly Cloudy
4:55 PM 66.2 °F 46.4 °F 49% 29.62 in 6.2 mi WNW 23.0 mph - N/A   Scattered Clouds
5:00 PM 67 °F 46 °F 36% 29.62 in 9 mi WNW 23.0 mph - -   Partly Cloudy
5:55 PM 64.4 °F 42.8 °F 45% 29.62 in 6.2 mi NW 16.1 mph 27.6 mph N/A   Scattered Clouds
6:55 PM 64.4 °F 41.0 °F 42% 29.65 in 6.2 mi WNW 23.0 mph - N/A   Partly Cloudy
7:55 PM 62.6 °F 42.8 °F 48% 29.65 in 6.2 mi NW 18.4 mph - N/A   Partly Cloudy
8:00 PM 62 °F 43 °F 39% 29.68 in 9 mi NW 18.4 mph - -   Scattered Clouds
8:55 PM 60.8 °F 44.6 °F 55% 29.68 in 6.2 mi West 10.4 mph - N/A   Partly Cloudy
9:55 PM 57.2 °F 48.2 °F 72% 29.71 in 6.2 mi West 12.7 mph - N/A   Partly Cloudy
10:55 PM 59.0 °F 50.0 °F 72% 29.74 in 6.2 mi West 17.3 mph - N/A   Scattered Clouds
11:00 PM 59 °F 50 °F 63% 29.75 in 6 mi West 17.3 mph - -   Partly Cloudy
11:55 PM 59.0 °F 50.0 °F 72% 29.77 in 6.2 mi WNW 20.7 mph - N/A   Scattered Clouds